Location: Brunsbüttel
(52.3892°N, 10.6138°E)
Time: 05:58:59
(UTC+00:00)

ATLAS 3B R/B - Pass Details

Date: 19 May 2025
Orbit: 935 x 1258 km, 63.8° (Epoch: 14 June)

Event Time Altitude Azimuth Distance (km) Brightness Sun altitude
Exits shadow 21:30:07 19° 153° (SSE) 2,482 4.0 -14.2°
Maximum altitude 21:33:54 29° 112° (ESE) 2,061 3.8 -14.4°
Drops below altitude 10° 21:40:17 10° 56° (NE) 3,222 5.3 -14.8°
Sets 21:43:31 0° 46° (NE) 4,211 6.1 -15.0°
